Regional Weather Roundup
Issued by NWS Sterling, VA

Home | Current Version | Previous Version | Text Only | Print | Product List | Glossary On
Versions: 1 2 3 4 5 6 7 8 9 10 11 12 13 14 15 16 17 18 19 20 21 22 23 24 25 26 27 28 29 30 31 32 33 34 35 36 37 38 39 40 41 42 43 44 45 46 47 48 49 50
000
ASUS41 KLWX 270311
RWRLWX

REGIONAL WEATHER ROUNDUP
NATIONAL WEATHER SERVICE BALTIMORE MD/WASHINGTON DC
1100 PM EDT FRI MAY 26 2017

Note: "FAIR" indicates few or no clouds below 12,000 feet
with no significant weather and/or obstructions to visibility.
 TC=TEMPERATURE CELSIUS

 * =Non NWS site. Station does not report precipitation (e.g. rain,
    snow, etc.), thunder, or fog.

DCZ001-MDZ009-015-VAZ040>042-051-053>054-270400-
WASHINGTON METRO

CITY           SKY/WX    TMP DP  RH WIND       PRES   REMARKS
WASHINGTON NAT CLEAR     68  54  60 N3        29.91R
DULLES         PTCLDY    60  54  80 E5        29.91R
ANDREWS AFB    CLEAR     59  55  85 CALM      29.90R
FT BELVOIR     PTCLDY    60  56  86 CALM      29.90R
QUANTICO       CLEAR     63  59  87 NW3       29.91R
COLLEGE PARK*  CLEAR     61  54  77 CALM      29.90R
LEESBURG*      CLEAR     63  59  88 CALM      29.92R
MANASSAS*      CLEAR     59  56  89 SE3       29.91R
GAITHERSBURG*  CLEAR     59  53  80 CALM      29.91R

$$

MDZ006>007-011-014-270400-
BALTIMORE METRO

CITY           SKY/WX    TMP DP  RH WIND       PRES   REMARKS
BWI AIRPORT    PTCLDY    60  56  86 SW3       29.89R
MD SCIENCE CTR   N/A     67  55  65 MISG      29.88R
MARTIN STATE   CLEAR     66  55  68 SW6       29.89R
ANNAPOLIS      CLEAR     67  55  65 W6        29.89R
FORT MEADE*    CLEAR     55  54  94 CALM      29.92R

$$

MDZ012-015-019>023-270400-
MARYLAND EASTERN SHORE

CITY           SKY/WX    TMP DP  RH WIND       PRES   REMARKS
OCEAN CITY     PTCLDY    68  53  58 NW8       29.89R
SALISBURY      CLEAR     68  54  60 W7        29.89R
BAY BRIDGE AP* CLEAR     66  55  68 W6        29.89R
CAMBRIDGE*     CLEAR     68  55  64 NW6       29.90R
EASTON*        CLEAR     67  55  64 NW5       29.93S

$$

MDZ017>025-270400-
SOUTHERN MARYLAND

CITY           SKY/WX    TMP DP  RH WIND       PRES   REMARKS
PATUXENT RIVER CLEAR     63  61  93 CALM      29.90R
ST INIGOES     CLEAR     63  60  90 CALM      29.89R
LEONARDTOWN*   CLEAR     61  57  88 CALM      29.92R

$$

MDZ003>005-270400-
NORTH CENTRAL MARYLAND

CITY           SKY/WX    TMP DP  RH WIND       PRES   REMARKS
FREDERICK*     NOT AVBL
HAGERSTOWN APT CLEAR     62  52  69 NW7       29.90R
WESTMINSTER*   CLEAR     63  55  77 W3        29.90S

$$

MDZ501>502-270400-
WESTERN MARYLAND

CITY           SKY/WX    TMP DP  RH WIND       PRES   REMARKS
OAKLAND*       PTCLDY    55  50  82 W6        29.97S
CUMBERLAND*    PTCLDY    63  55  77 N6        29.96R

$$

VAZ025>031-270400-
SHENANDOAH VALLEY

CITY           SKY/WX    TMP DP  RH WIND       PRES   REMARKS
WINCHESTER*    MOCLDY    57  54  88 CALM      29.92R
FRONT ROYAL*   CLEAR     63  54  72 SW5       29.90S
LURAY*         CLEAR     61  54  77 S5        29.93R
NEW MARKET*    CLEAR     58  55  87 CALM      29.93R
STAUNTON*      CLEAR     60  53  76 CALM      29.96S
WAYNESBORO*    CLEAR     62  55  77 SW5       29.96R

$$

WVZ021-048>050-054>055-270400-
EASTERN WEST VIRGINIA PANHANDLE

CITY           SKY/WX    TMP DP  RH WIND       PRES   REMARKS
MARTINSBURG    PTCLDY    59  54  83 CALM      29.90R
PETERSBURG*    MOCLDY    59  57  93 W3        29.94R

$$

VAZ036>039-050-270400-
CENTRAL FOOTHILLS

CITY           SKY/WX    TMP DP  RH WIND       PRES   REMARKS
CHARLOTTESVILL CLEAR     63  54  72 S5        29.92R
CULPEPER*      CLEAR     58  57  95 CALM      29.92R
ORANGE*        CLEAR     61  54  77 CALM      29.92R
GORDONSVILLE*  CLEAR     59  57  94 CALM      29.92R
WARRENTON*     CLEAR     57  54  88 CALM      29.90S

$$

VAZ055>057-270400-
NORTH AND CENTRAL PIEDMONT

CITY           SKY/WX    TMP DP  RH WIND       PRES   REMARKS
FREDERICKSBRG* CLEAR     62  57  84 CALM      29.90R
STAFFORD*      CLEAR     57  57 100 CALM      29.95R

$$

NCZ024-NYZ072-PAZ021-071-VAZ022-071-270400-
OTHER REGIONAL OBSERVATIONS

CITY           SKY/WX    TMP DP  RH WIND       PRES   REMARKS
NEW YORK CITY  CLEAR     67  51  56 NW8       29.81R
PHILADELPHIA   MOCLDY    69  53  56 NW10      29.84R
PITTSBURGH     MOCLDY    59  55  87 CALM      29.92S
ROANOKE        CLEAR     66  53  63 CALM      29.98R
RICHMOND       PTCLDY    63  58  83 CALM      29.91R
RALEIGH        PTCLDY    68  59  73 CALM      29.96R

$$

ANZ530>537-270400-
MARINE OBSERVATIONS

STATION/POSITION TIME  TEMP    WIND        PRES
                       AIR SEA DIR/SP/G
                 (UTC) (F)     (DEG/KT/KT) (MB)
THOMAS PT LIGHT  0300   68 64  270/  6/  6   N/A
BALT KEY BRIDGE  0248   67     260/  7/  8 1011.8R
COVE POINT       0248   67     350/  5/  5 1013.1R
LEWISETTA        0248   68 69  260/  2/  3 1012.5R
SOLOMONS ISLAND  0236   69 67  310/  4/  5   N/A
PINEY POINT      0248          360/  4/  5   N/A

$$




USA.gov is the U.S. government's official web portal to all federal, state and local government web resources and services.